Time,TemperatureF,DewpointF,PressureIn,WindDirection,WindDirectionDegrees,WindSpeedMPH,WindSpeedGustMPH,Humidity,HourlyPrecipIn,Conditions,Clouds,dailyrainin,SoftwareType,DateUTC
2015-01-29 00:13:00,24.0,-2.0,30.32,NW,314,1.0,-999.0,31,-99.99,,,-99.99,,2015-01-29 05:13:00,
2015-01-29 00:23:00,24.0,-2.0,30.32,NW,314,6.0,-999.0,31,-99.99,,,-99.99,,2015-01-29 05:23:00,
2015-01-29 00:43:00,24.0,-2.0,30.32,NW,314,1.0,-999.0,32,-99.99,,,-99.99,,2015-01-29 05:43:00,
2015-01-29 00:53:00,25.0,-2.0,30.33,NW,314,3.0,-999.0,30,-99.99,,,-99.99,,2015-01-29 05:53:00,
2015-01-29 01:23:00,26.0,0.0,30.33,NW,314,0.0,-999.0,31,-99.99,,,-99.99,,2015-01-29 06:23:00,
2015-01-29 01:42:00,24.0,-2.0,30.32,NW,314,0.0,-999.0,32,-99.99,,,-99.99,,2015-01-29 06:42:00,
2015-01-29 01:52:00,22.0,-2.0,30.33,NW,314,0.0,-999.0,34,-99.99,,,-99.99,,2015-01-29 06:52:00,
2015-01-29 02:22:00,22.0,-2.0,30.33,NW,314,2.0,-999.0,34,-99.99,,,-99.99,,2015-01-29 07:22:00,
2015-01-29 02:43:00,23.0,-1.0,30.35,NW,314,1.0,-999.0,34,-99.99,,,-99.99,,2015-01-29 07:43:00,
2015-01-29 02:53:00,23.0,0.0,30.35,NW,314,2.0,-999.0,36,-99.99,,,-99.99,,2015-01-29 07:53:00,
2015-01-29 03:22:00,21.0,-2.0,30.35,NW,314,0.0,-999.0,35,-99.99,,,-99.99,,2015-01-29 08:22:00,
2015-01-29 03:42:00,20.0,-1.0,30.36,NW,314,3.0,-999.0,38,-99.99,,,-99.99,,2015-01-29 08:42:00,
2015-01-29 03:52:00,20.0,-1.0,30.36,NW,314,1.0,-999.0,38,-99.99,,,-99.99,,2015-01-29 08:52:00,
2015-01-29 04:22:00,20.0,-1.0,30.35,NW,314,3.0,-999.0,38,-99.99,,,-99.99,,2015-01-29 09:22:00,
2015-01-29 04:44:00,20.0,-1.0,30.35,NW,314,3.0,-999.0,38,-99.99,,,-99.99,,2015-01-29 09:44:00,
2015-01-29 04:54:00,20.0,-2.0,30.35,NW,315,6.0,-999.0,37,-99.99,,,-99.99,,2015-01-29 09:54:00,
2015-01-29 05:13:00,19.0,-3.0,30.35,NW,315,2.0,-999.0,37,-99.99,,,-99.99,,2015-01-29 10:13:00,
2015-01-29 05:23:00,19.0,-3.0,30.35,NW,315,3.0,-999.0,37,-99.99,,,-99.99,,2015-01-29 10:23:00,
2015-01-29 05:53:00,19.0,-2.0,30.35,NW,315,2.0,-999.0,38,-99.99,,,-99.99,,2015-01-29 10:53:00,
2015-01-29 06:23:00,22.0,-1.0,30.36,NW,315,2.0,-999.0,35,-99.99,,,-99.99,,2015-01-29 11:23:00,
2015-01-29 06:44:00,22.0,-3.0,30.36,NW,315,2.0,-999.0,33,-99.99,,,-99.99,,2015-01-29 11:44:00,
2015-01-29 06:53:00,21.0,-1.0,30.36,NW,315,1.0,-999.0,38,-99.99,,,-99.99,,2015-01-29 11:53:00,
2015-01-29 07:12:00,19.0,-2.0,30.37,NW,315,3.0,-999.0,38,-99.99,,,-99.99,,2015-01-29 12:12:00,
2015-01-29 07:22:00,16.0,-2.0,30.38,NW,315,5.0,-999.0,43,-99.99,,,-99.99,,2015-01-29 12:22:00,
2015-01-29 07:52:00,17.0,-3.0,30.38,NW,315,4.0,-999.0,40,-99.99,,,-99.99,,2015-01-29 12:52:00,
2015-01-29 08:12:00,18.0,-2.0,30.38,NW,315,3.0,-999.0,40,-99.99,,,-99.99,,2015-01-29 13:12:00,
2015-01-29 08:22:00,18.0,-3.0,30.38,NW,315,4.0,-999.0,39,-99.99,,,-99.99,,2015-01-29 13:22:00,